www.pogodaiklimat.ru

Погода и климат >> Архив погоды >> Доминиканская Республика >> Las Americas


ПОГОДА в Las Americas

  • Прогноз погоды в Las Americas
  • Монитор погоды в Las Americas
  • Климат города

АРХИВ ПОГОДЫ в Las Americas

Время (UTC), дата Ветер
(напр.,м/с)
 
Видим.   Явления Облачность Т
(С)
Тd
(С)
f
(%)
Тe
(С)
Тes
(С)
Комфортность P
(гПа)
Po
(гПа)
Тmin
(С)
Tmax
(С)
R
(мм)
R24
(мм)
S
(см)
03 14.05 СВ 3 8000 м слабый дождь 8/6 480 м
[Cu Sc Ac trans]
+24.5 +22.9 91 +32 +32 очень
душно
1016.8 1017.0 0.0
06 14.05 СВ 2 16 км {дождь} 8/6 480 м
[Cu Sc Ac trans]
+23.3 +21.9 92 +32 +32 очень
душно
1015.9 1016.0 +22.0 +30.5 0.2
09 14.05 СВ 2 16 км 8/6 480 м
[Cu Sc Ac trans]
+22.3 +20.9 92 +29 +29 очень
душно
1015.0 1015.0
12 14.05 СВ 2 8000 м слабый дождь 9/8 300 м
[Cb cap As op Cs]
+23.5 +21.2 87 +30 +30 очень
душно
1016.6 1017.0 +21.1 +30.5 0.0
15 14.05 Ю 3 16 км {дождь} 8/5 480 м
[Cb cap Ac trans Cs]
+28.2 +23.4 75 +38 +44 очень
душно
1017.2 1017.0 1
18 14.05 ЮВ 6 16 км {дождь} 6/4 600 м
[Cu med, cong Cs]
+29.8 +23.8 70 +41 +45 опасность
перегрева
1015.2 1015.0 +22.1 +31.5
21 14.05 ЮВ 5 16 км 6/4 540 м
[Cb cap Cs]
+29.0 +23.9 74 +40 +42 очень
душно
1013.6 1014.0
00 15.05 ЮВ 4 16 км 5/4 540 м
[Cb cap Cs]
+26.1 +22.4 80 +34 +34 очень
душно
1014.6 1015.0 +22.1 +31.5
03 15.05 В 4 16 км 4/4 540 м
[Cu med, cong Ci]
+25.2 +22.1 83 +33 +33 очень
душно
1016.6 1017.0
06 15.05 В 4 16 км 3/3 540 м
[Cu med, cong]
+23.6 +21.5 88 +30 +30 очень
душно
1015.6 1016.0 +22.1 +31.5
09 15.05 СВ 2 16 км 6/3 480 м
[Cu med, cong Ci]
+22.7 +21.2 91 +30 +30 очень
душно
1015.6 1016.0
12 15.05 В 3 8000 м осадки на расстоянии 8/8 480 м
[Cb cap Ac trans Cs]
+24.2 +23.2 94 +32 +33 очень
душно
1016.6 1017.0 +22.5 +31.5
15 15.05 В 3 16 км в посл. час дождь 6/6 480 м
[Cb cap Ac trans Cs]
+27.8 +23.6 78 +38 +44 очень
душно
1017.2 1017.0 0.0
18 15.05 Ю 4 16 км {дождь} 6/5 600 м
[Cb cap Cs]
+30.0 +24.6 73 +43 +49 опасность
перегрева
1016.0 1016.0 +22.5 +30.5
21 15.05 ЮВ 5 16 км 6/5 570 м
[Cb cap Cs]
+28.8 +23.5 73 +39 +40 очень
душно
1015.2 1015.0
00 16.05 СВ 2 16 км 8/6 540 м
[Cb cap Cs]
+25.0 +22.9 88 +33 +33 очень
душно
1015.8 1016.0 +22.5 +30.8
03 16.05 СВ 3 16 км 5/4 480 м
[Cu med, cong Cs]
+22.5 +21.3 93 +30 +30 очень
душно
1017.6 1018.0
06 16.05 СВ 3 16 км 6/4 480 м
[Cu med, cong Cs]
+22.0 +21.0 94 +28 +28 душно 1016.2 1016.0 +22.5 +30.8
09 16.05 СВ 2 16 км 3/3 480 м
[Cu Sc Ci fib]
+21.1 +20.3 95 +26 +26 душно 1015.0 1015.0
12 16.05 СВ 3 16 км 9/5 540 м
[Cu Sc As op]
+23.4 +21.5 89 +32 +32 очень
душно
1016.0 1016.0 +21.1 +30.8
15 16.05 В 4 16 км 9/6 600 м
[Cu Sc Ac und]
+28.2 +23.1 74 +38 +40 очень
душно
1016.8 1017.0
18 16.05 ЮВ 5 16 км 8/5 600 м
[Cu med, cong Ac trans]
+29.6 +22.1 64 +38 +42 очень
душно
1015.5 1016.0 +21.1 +30.6
21 16.05 ЮВ 4 16 км 8/4 660 м
[Cu med, cong Ac trans Ci]
+29.0 +22.0 66 +37 +39 очень
душно
1014.0 1014.0
00 17.05 ЮВ 5 16 км 6/5 600 м
[Cu Sc Ac trans Cs]
+26.8 +23.9 84 +37 +37 очень
душно
1015.2 1015.0 +21.1 +30.6
03 17.05 СВ 2 16 км 5/5 540 м
[Cb cap Cs]
+25.0 +23.3 90 +33 +33 очень
душно
1016.8 1017.0
06 17.05 ЮВ 3 16 км в посл. час дождь 9/9 480 м
[Cu Sc]
+23.2 +22.2 94 +32 +32 очень
душно
1016.2 1016.0 +21.1 +30.6 0.6
09 17.05 штиль 0 16 км {дождь} 9/8 480 м
[Cu Sc]
+22.6 +21.9 96 +30 +30 очень
душно
1015.3 1015.0 1
12 17.05 СВ 3 16 км {дождь} 9/8 480 м
[Cb cap Ac trans]
+24.4 +23.2 93 +33 +33 очень
душно
1016.0 1016.0 +22.1 +30.6
15 17.05 В 6 16 км {ливн. осадки} 9/5 540 м
[Cb cap Ac trans]
+28.2 +23.7 77 +39 +41 очень
душно
1016.6 1017.0 0.2
00 18.05 В 5 16 км 3/3 540 м
[Cu med, cong]
+26.5 +21.9 76 +34 +34 очень
душно
1014.5 1015.0 +22.0 +31.5
03 18.05 В 4 16 км 6/5 540 м
[Cu Sc Cs]
+25.8 +22.0 80 +33 +33 очень
душно
1014.5 1015.0
06 18.05 В 2 16 км 8/6 480 м
[Cu Sc Cs]
+24.5 +22.2 87 +32 +32 очень
душно
1015.5 1016.0 +22.0 +31.5
09 18.05 СВ 5 16 км {дождь} 4/4 480 м
[Cu med, cong Ci]
+23.5 +21.8 90 +30 +30 очень
душно
1014.6 1015.0 0.0
12 18.05 С 3 16 км {дождь} 9/3 480 м
[Cu med, cong Cs]
+24.2 +21.9 87 +31 +33 очень
душно
1015.8 1016.0 +22.5 +31.5
15 18.05 В 3 16 км 6/4 600 м
[Cu med, cong Cs]
+28.5 +21.6 66 +36 +45 очень
душно
1016.0 1016.0
18 18.05 ЮВ 5 16 км 6/5 600 м
[Cb cap Ci]
+30.4 +21.5 59 +38 +43 очень
душно
1014.5 1015.0 +22.5 +31.2
21 18.05 ЮВ 5 16 км 6/5 600 м
[Cb cap Ci]
+29.0 +22.9 70 +39 +40 очень
душно
1015.0 1015.0
00 19.05 В 4 16 км 6/5 540 м
[Cb cap Ci]
+24.5 +20.6 79 +30 +30 очень
душно
1014.5 1015.0 +22.5 +31.5
06 19.05 СВ 3 16 км 5/5 540 м
[Cu Sc]
+22.8 +20.7 88 +30 +30 очень
душно
1015.5 1016.0 +22.5 +31.5
09 19.05 СВ 2 16 км 5/5 480 м
[Cu Sc]
+22.6 +21.0 91 +30 +30 очень
душно
1015.4 1015.0
12 19.05 В 3 16 км 3/3 540 м
[Cu med, cong]
+24.8 +21.3 81 +31 +34 очень
душно
1016.5 1017.0 +22.0 +31.2
15 19.05 ЮВ 6 16 км 5/5 660 м
[Cu med, cong]
+29.8 +20.4 57 +37 +40 очень
душно
1017.0 1017.0
18 19.05 ЮВ 5 16 км 5/4 660 м
[Cb cap Cs]
+31.0 +21.8 58 +39 +46 очень
душно
1015.4 1015.0 +22.0 +32.0
21 19.05 ЮВ 3 8000 м осадки на расстоянии 8/6 540 м
[Cb cap Cs]
+27.4 +23.2 78 +37 +39 очень
душно
1014.8 1015.0
00 20.05 СВ 3 16 км 5/5 540 м
[Cb cap Cs]
+24.0 +22.4 91 +31 +31 очень
душно
1016.2 1016.0 +22.0 +32.0
03 20.05 СВ 2 16 км 4/4 540 м
[Cu med, cong]
+23.0 +21.8 93 +31 +31 очень
душно
1017.2 1017.0
06 20.05 С 2 16 км 4/4 480 м
[Cb cap Cs]
+22.4 +21.2 93 +29 +29 очень
душно
1016.1 1016.0 +22.0 +32.0
09 20.05 СВ 2 16 км 3/3 480 м
[Cb cap]
+22.0 +20.5 91 +28 +28 душно 1015.0 1015.0
12 20.05 штиль 0 16 км 4/4 540 м
[Cb cap]
+25.0 +23.6 92 +34 +37 очень
душно
1016.5 1017.0 +22.0 +32.0
15 20.05 ЮВ 5 16 км 8/6 600 м
[Cb cap Cs]
+29.4 +23.8 72 +40 +44 очень
душно
1016.9 1017.0
18 20.05 ЮВ 6 8000 м осадки на расстоянии 8/6 540 м
[Cb cap Cs]
+30.6 +23.3 65 +41 +44 опасность
перегрева
1015.4 1015.0 +22.0 +31.5
21 20.05 ЮВ 6 16 км {гроза} 8/6 540 м
[Cb cap Cs]
+28.0 +24.5 81 +39 +40 очень
душно
1014.5 1015.0
00 21.05 СВ 3 16 км {гроза, дождь} 9/9 480 м
[Cb cap Cs]
+25.8 +25.8 100 +38 +38 очень
душно
1015.0 1015.0 +22.0 +31.5 0.0

 

Местоположение метеостанции Las Americas (Доминиканская Республика): широта 18.43 долгота -69.66 высота над уровнем моря 18 м.

В архиве по умолчанию представлена погода в Las Americas за последнюю неделю. Архивные данные за месяц целиком и за предыдущие месяцы, начиная с января 2011 года, Вы можете получить, выбрав интересующий диапазон дат из раскрывающегося списка и нажав кнопку "Ввод!".


*Определитесь, кто Вы:
робот инопланетянин человек

Внимание! Время в таблицах - всемирное. Для получения местного времени необходимо прибавить поправку, которая в Las Americas равна -4 ч.

Смотрите также архив погоды в соседних городах и на ближайших метеорологических станциях:

Погода в Santo Domingo (Доминиканская Республика) (23 км)
Погода в Sabana De La Mar (Доминиканская Республика) (75 км)
Погода в La Romana Int Airport (Доминиканская Республика) (78 км)
Погода в Punta Cana (Доминиканская Республика) (138 км)
Погода в Barahona (Доминиканская Республика) (154 км)
Погода в Santiago (Доминиканская Республика) (158 км)
Погода в Puerto Plata (Доминиканская Республика) (174 км)
Погода в Charlotte Amalie St. Thomas (Виргинские Острова) (496 км)
Погода в Punta de Maisi (Куба) (513 км)
Погода в Queen Beatrix Airport (Аруба) (661 км)

Пояснения к столбцам:

Ветер - указаны скорость ветра в м/с - средняя за 10 мин, порывы в срок и между сроками (в фигурных скобках) и направление, откуда дует ветер: С - северный, СВ - северо-восточный, В - восточный, ЮВ - юго-восточный, Ю - южный, ЮЗ - юго-западный, З - западный, СЗ - северо-западный.
Видимость - горизонтальная дальность видимости в метрах или километрах. При видимости от 1 до 10 км при отсутствии осадков обычно наблюдается дымка, при ухудшении видимости до 1 км и менее - туман. В сухую погоду видимость может ухудшаться дымом, пылью или мглою.
Явления - указаны атмосферные явления, наблюдавшиеся в срок или в последний час перед сроком; фигурными скобками обозначены явления, наблюдавшиеся между сроками (за 1-3 часа до срока); квадратными скобками обозначены град или гололедные отложения с указанием их диаметра в мм.
Облачность - указаны через наклонную черту общая и нижняя облачность в баллах и высота нижней границы облаков в метрах; квадратными скобками обозначены формы облаков: Ci - перистые, Cs - перисто-слоистые, Cc - перисто-кучевые, Ac - высококучевые, As - высокослоистые, Sc - слоисто-кучевые, Ns - слоисто-дождевые, Cu - кучевые, Cb - кучево-дождевые. Подробнее классификацию облаков см. в Атласе облаков (PDF).
T - Температура воздуха - температура, измеренная на высоте 2 м над землей.
Td - Температура точки росы - температура, при понижении до которой содержащийся в воздухе водяной пар достигнет насыщения.
f - Относительная влажность воздуха - влажноcть воздуха, измеренная на высоте 2 м над землей.
Te - Эффективная температура - температура, которую ощущает одетый по сезону человек в тени. Характеристика душности погоды. При расчете учитывается влияние влажности воздуха и скорости ветра на теплоощущения человека.
Tes - Эффективная температура на солнце - температура, которую ощущает человек, с поправкой на солнечный нагрев. Характеристика знойности погоды. Зависит от высоты солнца над горизонтом, облачности и скорости ветра. Ночью, в пасмурную погоду, а также при ветре 12 м/с и более поправка равна нулю.
P - Атмосферное давление - приведенное к уровню моря атмосферное давление.
Po - Атмосферное давление - измеренное на уровне метеостанции атмосферное давление.
Tmin - Минимальная температура - минимум температуры воздуха на высоте 2 м над землей.
Tmax - Максимальная температура - максимум температуры воздуха на высоте 2 м над землей.
R - Количество осадков - Количество выпавших осадков за период времени, мм. При наведении курсора мыши на число - период времени, за который выпало указанное количество осадков.
R24 - Количество осадков - Количество выпавших осадков за 24 часа, мм.
S - Снежный покров - Высота снежного покрова, см. При наведении курсора мыши на число - состояние снежного покрова и степень покрытия местности в баллах.